sat.trackr.live / text

‹ back to catalog

TDRS 13

NORAD 42915 · 2017-047A

PAYLOAD ACTIVE UNKNOWN

§ Identity

Operator
Country
US
Launch date
2017-08-18
Launch site
AFETR
Launch vehicle
Mass (kg)
RCS (m²)

Purposes: comms

External: N2YO · Heavens-Above · Gunter

§ Orbital elements

Epoch: 2026-09-14T22:18:09.859392Z

Period
1,436.09 min
Inclination
3.4837°
Eccentricity
0.0013644
Mean motion
1.00271939 rev/d
Perigee alt
35,729.0 km
Apogee alt
35,844.1 km
Semi-major
42,164.7 km
B*
0.0000e+0
RAAN
4.8757°
Arg perigee
121.4601°
Mean anomaly
190.7177°
Rev number
3,324

§ Raw data

TDRS 131 42915U 17047A   26257.92928078 -.00000105  00000+0  00000+0 0  99922 42915   3.4837   4.8757 0013644 121.4601 190.7177  1.00271939 33248

JSON: /api/v1/satellites/42915 · /tle

For live sub-satellite position, see the globe view (requires WebGL).

§ Visibility from observer

Set your observer location to see the next 7 days of passes ≥ 10°. The values pass through the URL so the page stays shareable.

No JS? Fill the form by hand. The geolocation button needs JavaScript.